When you browse on this site, cookies collect data to enhance your experience and personalize the content and advertising you see.
Visit our Privacy Policy to learn more. By continuing to use the site, you agree to this use of cookies and data.
  • In Belgien
  • Länderverzeichnis
  • Für 7 Tage
  • Wassertemperatur
  • Satellitenkarten
  • Wetterkarte
  • Widgets
  • user-avatar
    Anmelden

    Stündliche Wetter Zaprude

    Heute, 23 Mai, Donnerstag

    Zeit Temperatur Niederschläge Wind Luftdruck Luftfeuchtigkeit
    00:00 +12°C° 0 mm 1 m/S 741 mmHg 97%
    01:00 +11°C° 0 mm 1 m/S 741 mmHg 97%
    02:00 +10°C° 0 mm 0 m/S 740 mmHg 97%
    03:00 +11°C° 0.1 mm 0 m/S 740 mmHg 96%
    04:00 +11°C° 0.1 mm 0 m/S 740 mmHg 95%
    05:00 +12°C° 0.1 mm 0 m/S 740 mmHg 94%
    06:00 +15°C° 0 mm 1 m/S 740 mmHg 90%
    07:00 +16°C° 0 mm 1 m/S 740 mmHg 86%
    08:00 +19°C° 0 mm 1 m/S 739 mmHg 82%
    09:00 +18°C° 0.8 mm 2 m/S 739 mmHg 80%
    10:00 +19°C° 0.8 mm 3 m/S 740 mmHg 77%
    11:00 +20°C° 0.8 mm 3 m/S 740 mmHg 75%
    12:00 +18°C° 0.6 mm 4 m/S 740 mmHg 77%
    13:00 +16°C° 0.6 mm 5 m/S 740 mmHg 79%
    14:00 +15°C° 0.6 mm 6 m/S 741 mmHg 81%
    15:00 +14°C° 0 mm 6 m/S 741 mmHg 79%
    16:00 +13°C° 0 mm 5 m/S 741 mmHg 78%
    17:00 +12°C° 0 mm 5 m/S 742 mmHg 76%
    18:00 +10°C° 0 mm 4 m/S 742 mmHg 78%
    19:00 +9°C° 0 mm 3 m/S 743 mmHg 80%
    20:00 +8°C° 0 mm 3 m/S 743 mmHg 82%
    21:00 +7°C° 0 mm 2 m/S 744 mmHg 85%
    22:00 +6°C° 0 mm 2 m/S 744 mmHg 87%
    23:00 +6°C° 0 mm 2 m/S 745 mmHg 89%

    Morgen, 24 Mai, Freitag

    Zeit Temperatur Niederschläge Wind Luftdruck Luftfeuchtigkeit
    00:00 +5°C° 0 mm 2 m/S 745 mmHg 86%
    01:00 +5°C° 0 mm 2 m/S 746 mmHg 82%
    02:00 +4°C° 0 mm 2 m/S 746 mmHg 79%
    03:00 +3°C° 0 mm 3 m/S 746 mmHg 75%
    04:00 +4°C° 0 mm 3 m/S 747 mmHg 71%
    05:00 +4°C° 0 mm 3 m/S 747 mmHg 67%
    06:00 +7°C° 0 mm 3 m/S 747 mmHg 62%
    07:00 +8°C° 0 mm 3 m/S 747 mmHg 58%
    08:00 +10°C° 0 mm 3 m/S 748 mmHg 53%
    09:00 +11°C° 0 mm 3 m/S 748 mmHg 51%
    10:00 +12°C° 0 mm 3 m/S 748 mmHg 48%
    11:00 +13°C° 0 mm 3 m/S 748 mmHg 46%
    12:00 +13°C° 0 mm 3 m/S 747 mmHg 45%
    13:00 +14°C° 0 mm 3 m/S 747 mmHg 45%
    14:00 +14°C° 0 mm 3 m/S 747 mmHg 44%
    15:00 +14°C° 0 mm 3 m/S 747 mmHg 47%
    16:00 +14°C° 0 mm 3 m/S 747 mmHg 49%
    17:00 +14°C° 0 mm 3 m/S 746 mmHg 52%
    18:00 +13°C° 0 mm 3 m/S 746 mmHg 58%
    19:00 +11°C° 0 mm 3 m/S 746 mmHg 64%
    20:00 +9°C° 0 mm 3 m/S 746 mmHg 70%
    21:00 +9°C° 0 mm 3 m/S 746 mmHg 69%
    22:00 +9°C° 0 mm 3 m/S 746 mmHg 68%
    23:00 +7°C° 0 mm 4 m/S 746 mmHg 67%

    übermorgen, 25 Mai, Samstag

    Zeit Temperatur Niederschläge Wind Luftdruck Luftfeuchtigkeit
    00:00 +7°C° 0 mm 4 m/S 746 mmHg 67%
    01:00 +7°C° 0 mm 4 m/S 746 mmHg 68%
    02:00 +7°C° 0 mm 4 m/S 746 mmHg 68%
    03:00 +7°C° 0 mm 4 m/S 745 mmHg 70%
    04:00 +7°C° 0 mm 4 m/S 745 mmHg 71%
    05:00 +8°C° 0 mm 4 m/S 745 mmHg 73%
    06:00 +10°C° 0.2 mm 4 m/S 744 mmHg 74%
    07:00 +11°C° 0.2 mm 4 m/S 744 mmHg 76%
    08:00 +11°C° 0.2 mm 4 m/S 744 mmHg 78%
    09:00 +13°C° 0.1 mm 4 m/S 743 mmHg 75%
    10:00 +15°C° 0.1 mm 5 m/S 743 mmHg 72%
    11:00 +16°C° 0.1 mm 5 m/S 743 mmHg 69%
    12:00 +17°C° 0 mm 5 m/S 742 mmHg 68%
    13:00 +19°C° 0 mm 5 m/S 742 mmHg 66%
    14:00 +19°C° 0 mm 4 m/S 742 mmHg 65%
    15:00 +19°C° 0.1 mm 4 m/S 741 mmHg 70%
    16:00 +18°C° 0.1 mm 3 m/S 740 mmHg 75%
    17:00 +18°C° 0.1 mm 3 m/S 740 mmHg 80%
    18:00 +17°C° 0.1 mm 3 m/S 739 mmHg 83%
    19:00 +15°C° 0.1 mm 4 m/S 739 mmHg 86%
    20:00 +15°C° 0.1 mm 4 m/S 739 mmHg 88%
    21:00 +15°C° 0 mm 4 m/S 738 mmHg 90%
    22:00 +14°C° 0 mm 5 m/S 738 mmHg 92%
    23:00 +14°C° 0 mm 5 m/S 738 mmHg 94%

    26 Mai, Sonntag

    Zeit Temperatur Niederschläge Wind Luftdruck Luftfeuchtigkeit
    00:00 +14°C° 1 mm 4 m/S 737 mmHg 95%
    01:00 +14°C° 1 mm 4 m/S 737 mmHg 96%
    02:00 +14°C° 1 mm 4 m/S 737 mmHg 97%
    03:00 +14°C° 0.1 mm 4 m/S 737 mmHg 97%
    04:00 +13°C° 0.1 mm 3 m/S 737 mmHg 96%
    05:00 +13°C° 0.1 mm 3 m/S 737 mmHg 96%
    06:00 +14°C° 0 mm 3 m/S 737 mmHg 90%
    07:00 +14°C° 0 mm 3 m/S 737 mmHg 84%
    08:00 +15°C° 0 mm 4 m/S 737 mmHg 79%
    09:00 +17°C° 0 mm 4 m/S 737 mmHg 71%
    10:00 +18°C° 0 mm 4 m/S 737 mmHg 63%
    11:00 +19°C° 0 mm 4 m/S 737 mmHg 56%
    12:00 +19°C° 0 mm 4 m/S 737 mmHg 55%
    13:00 +19°C° 0 mm 4 m/S 737 mmHg 55%
    14:00 +20°C° 0 mm 4 m/S 737 mmHg 55%
    15:00 +19°C° 0 mm 4 m/S 737 mmHg 57%
    16:00 +19°C° 0 mm 3 m/S 737 mmHg 59%
    17:00 +19°C° 0 mm 3 m/S 737 mmHg 62%
    18:00 +17°C° 0 mm 2 m/S 737 mmHg 68%
    19:00 +15°C° 0 mm 1 m/S 737 mmHg 74%
    20:00 +12°C° 0 mm 0 m/S 737 mmHg 80%
    21:00 +13°C° 0 mm 1 m/S 737 mmHg 81%
    22:00 +12°C° 0 mm 2 m/S 737 mmHg 83%
    23:00 +12°C° 0 mm 2 m/S 737 mmHg 84%

    27 Mai, Montag

    Zeit Temperatur Niederschläge Wind Luftdruck Luftfeuchtigkeit
    00:00 +12°C° 0 mm 2 m/S 737 mmHg 85%
    01:00 +12°C° 0 mm 2 m/S 737 mmHg 86%
    02:00 +12°C° 0 mm 2 m/S 736 mmHg 88%
    03:00 +11°C° 1.1 mm 3 m/S 736 mmHg 90%
    04:00 +10°C° 1.1 mm 4 m/S 736 mmHg 91%
    05:00 +9°C° 1.1 mm 5 m/S 736 mmHg 93%
    06:00 +9°C° 0.3 mm 5 m/S 737 mmHg 89%
    07:00 +10°C° 0.3 mm 6 m/S 737 mmHg 86%
    08:00 +10°C° 0.3 mm 6 m/S 737 mmHg 82%
    09:00 +10°C° 0.4 mm 7 m/S 738 mmHg 79%
    10:00 +10°C° 0.4 mm 7 m/S 738 mmHg 77%
    11:00 +11°C° 0.4 mm 7 m/S 739 mmHg 74%
    12:00 +11°C° 0.2 mm 7 m/S 739 mmHg 69%
    13:00 +12°C° 0.2 mm 7 m/S 740 mmHg 64%
    14:00 +14°C° 0.2 mm 7 m/S 740 mmHg 59%
    15:00 +14°C° 0.1 mm 7 m/S 741 mmHg 62%
    16:00 +13°C° 0.1 mm 6 m/S 741 mmHg 65%
    17:00 +13°C° 0.1 mm 6 m/S 741 mmHg 69%
    18:00 +12°C° 0 mm 5 m/S 742 mmHg 73%
    19:00 +11°C° 0 mm 4 m/S 743 mmHg 77%
    20:00 +10°C° 0 mm 3 m/S 743 mmHg 81%
    21:00 +10°C° 0 mm 3 m/S 743 mmHg 81%
    22:00 +10°C° 0 mm 3 m/S 744 mmHg 81%
    23:00 +10°C° 0 mm 3 m/S 744 mmHg 81%

    28 Mai, Dienstag

    Zeit Temperatur Niederschläge Wind Luftdruck Luftfeuchtigkeit
    00:00 +9°C° 0 mm 3 m/S 745 mmHg 85%
    01:00 +8°C° 0 mm 2 m/S 745 mmHg 89%
    02:00 +8°C° 0 mm 2 m/S 746 mmHg 94%
    03:00 +8°C° 0 mm 2 m/S 746 mmHg 92%
    04:00 +9°C° 0 mm 2 m/S 747 mmHg 90%
    05:00 +9°C° 0 mm 2 m/S 747 mmHg 88%
    06:00 +11°C° 0 mm 3 m/S 748 mmHg 80%
    07:00 +13°C° 0 mm 3 m/S 748 mmHg 73%
    08:00 +16°C° 0 mm 3 m/S 748 mmHg 65%
    09:00 +17°C° 0 mm 3 m/S 748 mmHg 62%
    10:00 +18°C° 0 mm 3 m/S 748 mmHg 58%
    11:00 +19°C° 0 mm 3 m/S 748 mmHg 54%
    12:00 +20°C° 0 mm 3 m/S 748 mmHg 53%
    13:00 +21°C° 0 mm 2 m/S 748 mmHg 52%
    14:00 +23°C° 0 mm 2 m/S 748 mmHg 51%
    15:00 +23°C° 0 mm 2 m/S 748 mmHg 55%
    16:00 +23°C° 0 mm 2 m/S 748 mmHg 59%
    17:00 +23°C° 0 mm 2 m/S 747 mmHg 64%
    18:00 +20°C° 0 mm 2 m/S 747 mmHg 67%
    19:00 +19°C° 0 mm 2 m/S 747 mmHg 70%
    20:00 +18°C° 0 mm 3 m/S 747 mmHg 74%
    21:00 +17°C° 0 mm 3 m/S 747 mmHg 77%
    22:00 +17°C° 0 mm 3 m/S 747 mmHg 80%
    23:00 +17°C° 0 mm 3 m/S 747 mmHg 82%
    Mehr zeigen